Location: Olbia
(40.9170°N, 9.5170°E)
Time: 23:43:08
(UTC+01:00)

ISS - Visible Passes

Search period start: 18 January 2019 00:00
Search period end: 28 January 2019 00:00
Orbit: 404 x 410 km, 51.6° (Epoch: 18 January)

Date Brightness Start Highest point End Pass type
(mag) Time Alt. Az. Time Alt. Az. Time Alt. Az.
20 Jan -1.3 19:33:58 10° SSW 19:34:50 16° SSW 19:34:50 16° SSW visible
21 Jan -2.3 18:43:17 10° S 18:45:51 21° SE 18:46:01 21° SE visible
22 Jan -2.7 19:27:28 10° WSW 19:29:52 45° WSW 19:29:52 45° WSW visible
23 Jan -3.6 18:36:11 10° SW 18:39:24 54° SE 18:40:53 28° ENE visible
23 Jan -0.3 20:13:21 10° W 20:13:36 11° WNW 20:13:36 11° WNW visible
24 Jan -2.6 19:21:30 10° W 19:24:32 35° NNW 19:24:32 35° NNW visible
25 Jan -3.4 18:29:50 10° WSW 18:33:05 60° NNW 18:35:23 18° NE visible
25 Jan -0.4 20:07:55 10° WNW 20:08:06 11° NW 20:08:06 11° NW visible
26 Jan -1.9 19:15:52 10° WNW 19:18:29 21° NNW 19:18:52 21° N visible
27 Jan -2.3 18:23:55 10° W 18:26:52 29° NNW 18:29:36 11° NE visible
